date,time,SUV Intensity [MED/Hr],UV Index,Daily total [MED],Since Last [MED]
01/06/2022,00:08:44,-0.001,0.0,0.0,0.0
01/06/2022,00:09:52,0.000,0.0,0.0,0.0
01/06/2022,00:10:43,0.000,0.0,0.0,0.0
01/06/2022,00:11:44,0.001,0.0,0.0,0.0
01/06/2022,00:12:52,0.000,0.0,0.0,0.0
01/06/2022,00:13:43,0.000,0.0,0.0,0.0
01/06/2022,00:14:43,0.000,0.0,0.0,0.0
01/06/2022,00:15:43,0.000,0.0,0.0,0.0
01/06/2022,00:16:43,0.000,0.0,0.0,0.0
01/06/2022,00:17:43,0.000,0.0,0.0,0.0
01/06/2022,00:18:44,0.000,0.0,0.0,0.0
01/06/2022,00:19:43,0.001,0.0,0.0,0.0
01/06/2022,00:20:43,0.001,0.0,0.0,0.0
01/06/2022,00:21:44,-0.001,0.0,0.0,0.0
01/06/2022,00:22:52,0.000,0.0,0.0,0.0
01/06/2022,00:23:51,0.000,0.0,0.0,0.0
01/06/2022,00:24:43,0.000,0.0,0.0,0.0
01/06/2022,00:25:43,-0.001,0.0,0.0,0.0
01/06/2022,00:26:43,0.000,0.0,0.0,0.0
01/06/2022,00:27:44,0.000,0.0,0.0,0.0
01/06/2022,00:28:43,0.000,0.0,0.0,0.0
01/06/2022,00:29:44,0.000,0.0,0.0,0.0
01/06/2022,00:30:43,0.000,0.0,0.0,0.0
01/06/2022,00:31:44,0.000,0.0,0.0,0.0
01/06/2022,00:32:52,0.000,0.0,0.0,0.0
01/06/2022,00:34:52,0.000,0.0,0.0,0.0
01/06/2022,00:36:44,0.000,0.0,0.0,0.0
01/06/2022,00:37:44,0.000,0.0,0.0,0.0
01/06/2022,00:38:44,0.000,0.0,0.0,0.0
01/06/2022,00:39:43,0.000,0.0,0.0,0.0
01/06/2022,00:40:44,0.000,0.0,0.0,0.0
01/06/2022,00:41:43,0.000,0.0,0.0,0.0
01/06/2022,00:42:52,0.000,0.0,0.0,0.0
01/06/2022,00:43:51,0.000,0.0,0.0,0.0
01/06/2022,00:44:43,0.001,0.0,0.0,0.0
01/06/2022,00:45:52,0.000,0.0,0.0,0.0
01/06/2022,00:47:44,0.001,0.0,0.0,0.0
01/06/2022,00:48:44,0.000,0.0,0.0,0.0
01/06/2022,00:49:44,0.000,0.0,0.0,0.0
01/06/2022,00:50:44,0.001,0.0,0.0,0.0
01/06/2022,00:51:43,0.000,0.0,0.0,0.0
01/06/2022,00:52:43,0.000,0.0,0.0,0.0
01/06/2022,00:53:52,0.000,0.0,0.0,0.0
01/06/2022,00:55:44,0.000,0.0,0.0,0.0
01/06/2022,00:56:44,0.000,0.0,0.0,0.0
01/06/2022,00:57:43,0.000,0.0,0.0,0.0
01/06/2022,00:58:43,0.000,0.0,0.0,0.0
01/06/2022,00:59:44,0.001,0.0,0.0,0.0
01/06/2022,01:00:44,0.000,0.0,0.0,0.0
01/06/2022,01:01:44,0.000,0.0,0.0,0.0
01/06/2022,01:02:43,-0.001,0.0,0.0,0.0
01/06/2022,01:03:59,0.000,0.0,0.0,0.0
01/06/2022,01:05:44,0.000,0.0,0.0,0.0
01/06/2022,01:06:44,0.000,0.0,0.0,0.0
01/06/2022,01:07:44,0.001,0.0,0.0,0.0
01/06/2022,01:08:43,0.000,0.0,0.0,0.0
01/06/2022,01:09:44,0.001,0.0,0.0,0.0
01/06/2022,01:10:44,0.000,0.0,0.0,0.0
01/06/2022,01:11:43,0.000,0.0,0.0,0.0
01/06/2022,01:12:43,-0.001,0.0,0.0,0.0
01/06/2022,01:13:44,0.001,0.0,0.0,0.0
01/06/2022,01:14:43,0.000,0.0,0.0,0.0
01/06/2022,01:15:43,0.000,0.0,0.0,0.0
01/06/2022,01:16:44,0.001,0.0,0.0,0.0
01/06/2022,01:17:43,0.000,0.0,0.0,0.0
01/06/2022,01:18:44,0.000,0.0,0.0,0.0
01/06/2022,01:19:44,0.001,0.0,0.0,0.0
01/06/2022,01:20:43,0.000,0.0,0.0,0.0
01/06/2022,01:21:43,0.000,0.0,0.0,0.0
01/06/2022,01:22:43,0.000,0.0,0.0,0.0
01/06/2022,01:23:43,0.000,0.0,0.0,0.0
01/06/2022,01:24:44,0.000,0.0,0.0,0.0
01/06/2022,01:25:43,0.000,0.0,0.0,0.0
01/06/2022,01:26:43,0.000,0.0,0.0,0.0
01/06/2022,01:27:43,-0.001,0.0,0.0,0.0
01/06/2022,01:28:43,0.001,0.0,0.0,0.0
01/06/2022,01:29:44,0.000,0.0,0.0,0.0
01/06/2022,01:30:43,0.000,0.0,0.0,0.0
01/06/2022,01:31:44,0.000,0.0,0.0,0.0
01/06/2022,01:32:51,0.001,0.0,0.0,0.0
01/06/2022,01:34:57,0.000,0.0,0.0,0.0
01/06/2022,01:36:44,0.000,0.0,0.0,0.0
01/06/2022,01:37:43,0.000,0.0,0.0,0.0
01/06/2022,01:38:44,0.000,0.0,0.0,0.0
01/06/2022,01:39:43,0.001,0.0,0.0,0.0
01/06/2022,01:40:52,0.000,0.0,0.0,0.0
01/06/2022,01:41:44,0.000,0.0,0.0,0.0
01/06/2022,01:42:44,0.001,0.0,0.0,0.0
01/06/2022,01:43:43,-0.001,0.0,0.0,0.0
01/06/2022,01:44:44,0.000,0.0,0.0,0.0
01/06/2022,01:45:45,0.000,0.0,0.0,0.0
01/06/2022,01:46:52,0.000,0.0,0.0,0.0
01/06/2022,01:47:44,0.001,0.0,0.0,0.0
01/06/2022,01:48:44,0.000,0.0,0.0,0.0
01/06/2022,01:49:44,0.000,0.0,0.0,0.0
01/06/2022,01:50:44,0.001,0.0,0.0,0.0
01/06/2022,01:51:44,0.000,0.0,0.0,0.0
01/06/2022,01:52:44,0.000,0.0,0.0,0.0
01/06/2022,01:53:51,0.001,0.0,0.0,0.0
01/06/2022,01:55:44,0.000,0.0,0.0,0.0
01/06/2022,01:56:43,-0.001,0.0,0.0,0.0
01/06/2022,01:57:45,-0.000,0.0,0.0,0.0
01/06/2022,01:58:44,-0.000,0.0,0.0,0.0
01/06/2022,01:59:44,0.000,0.0,0.0,0.0
01/06/2022,02:00:44,-0.000,0.0,0.0,0.0
01/06/2022,02:01:44,0.000,0.0,0.0,0.0
01/06/2022,02:02:44,0.000,0.0,0.0,0.0
01/06/2022,02:03:52,0.000,0.0,0.0,0.0
01/06/2022,02:05:44,0.000,0.0,0.0,0.0
01/06/2022,02:06:44,0.000,0.0,0.0,0.0
01/06/2022,02:07:44,0.000,0.0,0.0,0.0
01/06/2022,02:08:44,0.000,0.0,0.0,0.0
01/06/2022,02:09:44,0.000,0.0,0.0,0.0
01/06/2022,02:10:55,0.000,0.0,0.0,0.0
01/06/2022,02:12:44,-0.000,0.0,0.0,0.0
01/06/2022,02:13:52,0.000,0.0,0.0,0.0
01/06/2022,02:14:43,0.000,0.0,0.0,0.0
01/06/2022,02:15:44,-0.000,0.0,0.0,0.0
01/06/2022,02:16:43,0.000,0.0,0.0,0.0
01/06/2022,02:17:43,-0.001,0.0,0.0,0.0
01/06/2022,02:18:43,0.000,0.0,0.0,0.0
01/06/2022,02:19:44,-0.001,0.0,0.0,0.0
01/06/2022,02:20:44,0.000,0.0,0.0,0.0
01/06/2022,02:21:44,0.001,0.0,0.0,0.0
01/06/2022,02:22:44,0.000,0.0,0.0,0.0
01/06/2022,02:23:52,0.000,0.0,0.0,0.0
01/06/2022,02:25:44,0.000,0.0,0.0,0.0
01/06/2022,02:26:52,0.000,0.0,0.0,0.0
01/06/2022,02:27:44,0.000,0.0,0.0,0.0
01/06/2022,02:28:44,0.000,0.0,0.0,0.0
01/06/2022,02:29:45,0.000,0.0,0.0,0.0
01/06/2022,02:30:44,0.000,0.0,0.0,0.0
01/06/2022,02:31:44,0.000,0.0,0.0,0.0
01/06/2022,02:32:43,0.000,0.0,0.0,0.0
01/06/2022,02:33:43,-0.000,0.0,0.0,0.0
01/06/2022,02:34:43,-0.001,0.0,0.0,0.0
01/06/2022,02:35:44,0.000,0.0,0.0,0.0
01/06/2022,02:36:52,0.000,0.0,0.0,0.0
01/06/2022,02:38:45,-0.001,0.0,0.0,0.0
01/06/2022,02:39:44,-0.000,0.0,0.0,0.0
01/06/2022,02:40:44,-0.000,0.0,0.0,0.0
01/06/2022,02:41:43,-0.000,0.0,0.0,0.0
01/06/2022,02:42:43,0.000,0.0,0.0,0.0
01/06/2022,02:43:52,-0.000,0.0,0.0,0.0
01/06/2022,02:44:44,0.000,0.0,0.0,0.0
01/06/2022,02:45:43,0.000,0.0,0.0,0.0
01/06/2022,02:46:52,0.000,0.0,0.0,0.0
01/06/2022,02:47:52,-0.002,0.0,0.0,0.0
01/06/2022,02:48:43,0.000,0.0,0.0,0.0
01/06/2022,02:49:44,0.000,0.0,0.0,0.0
01/06/2022,02:50:43,0.001,0.0,0.0,0.0
01/06/2022,02:51:44,0.000,0.0,0.0,0.0
01/06/2022,02:52:43,-0.001,0.0,0.0,0.0
01/06/2022,02:53:44,0.000,0.0,0.0,0.0
01/06/2022,02:54:52,0.000,0.0,0.0,0.0
01/06/2022,02:56:44,0.000,0.0,0.0,0.0
01/06/2022,02:57:43,0.000,0.0,0.0,0.0
01/06/2022,02:58:44,-0.000,0.0,0.0,0.0
01/06/2022,02:59:44,0.000,0.0,0.0,0.0
01/06/2022,03:00:44,0.001,0.0,0.0,0.0
01/06/2022,03:01:44,0.000,0.0,0.0,0.0
01/06/2022,03:02:44,0.000,0.0,0.0,0.0
01/06/2022,03:03:44,0.000,0.0,0.0,0.0
01/06/2022,03:04:44,0.000,0.0,0.0,0.0
01/06/2022,03:05:44,-0.000,0.0,0.0,0.0
01/06/2022,03:06:43,0.001,0.0,0.0,0.0
01/06/2022,03:07:43,0.000,0.0,0.0,0.0
01/06/2022,03:08:44,-0.000,0.0,0.0,0.0
01/06/2022,03:09:44,-0.000,0.0,0.0,0.0
01/06/2022,03:10:52,0.000,0.0,0.0,0.0
01/06/2022,03:11:34,-0.000,0.0,0.0,0.0
01/06/2022,03:12:45,-0.000,0.0,0.0,0.0
01/06/2022,03:13:44,0.000,0.0,0.0,0.0
01/06/2022,03:14:44,0.000,0.0,0.0,0.0
01/06/2022,03:15:43,-0.001,0.0,0.0,0.0
01/06/2022,03:16:44,0.001,0.0,0.0,0.0
01/06/2022,03:17:44,-0.000,0.0,0.0,0.0
01/06/2022,03:18:44,-0.001,0.0,0.0,0.0
01/06/2022,03:19:44,-0.001,0.0,0.0,0.0
01/06/2022,03:20:44,-0.000,0.0,0.0,0.0
01/06/2022,03:21:43,-0.000,0.0,0.0,0.0
01/06/2022,03:22:43,0.001,0.0,0.0,0.0
01/06/2022,03:23:44,-0.001,0.0,0.0,0.0
01/06/2022,03:24:44,-0.000,0.0,0.0,0.0
01/06/2022,03:25:43,-0.000,0.0,0.0,0.0
01/06/2022,03:26:43,0.000,0.0,0.0,0.0
01/06/2022,03:27:52,-0.000,0.0,0.0,0.0
01/06/2022,03:29:44,-0.000,0.0,0.0,0.0
01/06/2022,03:30:44,0.001,0.0,0.0,0.0
01/06/2022,03:31:43,0.000,0.0,0.0,0.0
01/06/2022,03:32:43,-0.000,0.0,0.0,0.0
01/06/2022,03:33:43,0.000,0.0,0.0,0.0
01/06/2022,03:34:43,0.000,0.0,0.0,0.0
01/06/2022,03:35:44,0.000,0.0,0.0,0.0
01/06/2022,03:36:44,0.000,0.0,0.0,0.0
01/06/2022,03:37:43,0.000,0.0,0.0,0.0
01/06/2022,03:38:43,0.000,0.0,0.0,0.0
01/06/2022,03:39:44,0.000,0.0,0.0,0.0
01/06/2022,03:40:30,0.000,0.0,0.0,0.0
01/06/2022,03:41:45,0.000,0.0,0.0,0.0
01/06/2022,03:42:44,0.001,0.0,0.0,0.0
01/06/2022,03:43:43,0.000,0.0,0.0,0.0
01/06/2022,03:44:43,0.000,0.0,0.0,0.0
01/06/2022,03:45:43,0.000,0.0,0.0,0.0
01/06/2022,03:46:44,0.001,0.0,0.0,0.0
01/06/2022,03:47:43,0.000,0.0,0.0,0.0
01/06/2022,03:48:44,0.001,0.0,0.0,0.0
01/06/2022,03:49:44,0.000,0.0,0.0,0.0
01/06/2022,03:50:52,0.000,0.0,0.0,0.0
01/06/2022,03:52:44,0.001,0.0,0.0,0.0
01/06/2022,03:53:45,0.001,0.0,0.0,0.0
01/06/2022,03:54:44,0.001,0.0,0.0,0.0
01/06/2022,03:55:44,0.001,0.0,0.0,0.0
01/06/2022,03:56:43,0.001,0.0,0.0,0.0
01/06/2022,03:57:43,0.001,0.0,0.0,0.0
01/06/2022,03:58:44,0.001,0.0,0.0,0.0
01/06/2022,03:59:44,0.002,0.0,0.0,0.0
01/06/2022,04:00:52,0.002,0.0,0.0,0.0
01/06/2022,04:02:53,0.001,0.0,0.0,0.0
01/06/2022,04:04:44,0.002,0.0,0.0,0.0
01/06/2022,04:05:44,0.002,0.0,0.0,0.0
01/06/2022,04:06:44,0.002,0.0,0.0,0.0
01/06/2022,04:07:43,0.003,0.0,0.0,0.0
01/06/2022,04:08:44,0.002,0.0,0.0,0.0
01/06/2022,04:09:44,0.002,0.0,0.0,0.0
01/06/2022,04:10:44,0.003,0.0,0.0,0.0
01/06/2022,04:11:44,0.003,0.0,0.0,0.0
01/06/2022,04:12:44,0.003,0.0,0.0,0.0
01/06/2022,04:13:44,0.003,0.0,0.0,0.0
01/06/2022,04:14:45,0.003,0.0,0.0,0.0
01/06/2022,04:15:43,0.003,0.0,0.0,0.0
01/06/2022,04:16:43,0.003,0.0,0.0,0.0
01/06/2022,04:17:44,0.004,0.0,0.0,0.0
01/06/2022,04:18:44,0.004,0.0,0.0,0.0
01/06/2022,04:19:44,0.004,0.0,0.0,0.0
01/06/2022,04:20:44,0.005,0.0,0.0,0.0
01/06/2022,04:21:43,0.004,0.0,0.0,0.0
01/06/2022,04:22:44,0.006,0.0,0.0,0.0
01/06/2022,04:23:44,0.006,0.0,0.0,0.0
01/06/2022,04:24:44,0.006,0.0,0.0,0.0
01/06/2022,04:25:44,0.006,0.0,0.0,0.0
01/06/2022,04:26:44,0.007,0.0,0.0,0.0
01/06/2022,04:27:44,0.006,0.0,0.0,0.0
01/06/2022,04:28:44,0.006,0.0,0.0,0.0
01/06/2022,04:29:44,0.007,0.0,0.0,0.0
01/06/2022,04:30:44,0.007,0.0,0.001,0.001
01/06/2022,04:31:44,0.007,0.0,0.001,0.0
01/06/2022,04:32:44,0.008,0.0,0.001,0.0
01/06/2022,04:33:44,0.008,0.0,0.001,0.0
01/06/2022,04:34:44,0.008,0.0,0.001,0.0
01/06/2022,04:35:43,0.008,0.0,0.001,0.0
01/06/2022,04:36:45,0.009,0.0,0.001,0.0
01/06/2022,04:37:43,0.009,0.0,0.001,0.0
01/06/2022,04:38:52,0.008,0.0,0.002,0.001
01/06/2022,04:40:44,0.007,0.0,0.002,0.0
01/06/2022,04:41:52,0.007,0.0,0.002,0.0
01/06/2022,04:42:44,0.006,0.0,0.002,0.0
01/06/2022,04:43:43,0.007,0.0,0.002,0.0
01/06/2022,04:44:52,0.007,0.0,0.002,0.0
01/06/2022,04:46:44,0.006,0.0,0.003,0.001
01/06/2022,04:47:44,0.005,0.0,0.003,0.0
01/06/2022,04:48:44,0.006,0.0,0.003,0.0
01/06/2022,04:49:43,0.006,0.0,0.003,0.0
01/06/2022,04:50:44,0.005,0.0,0.003,0.0
01/06/2022,04:51:52,0.006,0.0,0.003,0.0
01/06/2022,04:52:44,0.005,0.0,0.003,0.0
01/06/2022,04:53:44,0.006,0.0,0.003,0.0
01/06/2022,04:54:44,0.007,0.0,0.003,0.0
01/06/2022,04:55:44,0.008,0.0,0.003,0.0
01/06/2022,04:56:44,0.009,0.0,0.003,0.0
01/06/2022,04:57:44,0.010,0.0,0.003,0.0
01/06/2022,04:58:44,0.012,0.0,0.004,0.001
01/06/2022,04:59:44,0.013,0.0,0.004,0.0
01/06/2022,05:00:43,0.014,0.0,0.004,0.0
01/06/2022,05:01:52,0.016,0.0,0.004,0.0
01/06/2022,05:03:44,0.016,0.0,0.005,0.001
01/06/2022,05:04:44,0.017,0.0,0.005,0.0
01/06/2022,05:05:44,0.017,0.0,0.005,0.0
01/06/2022,05:06:43,0.019,0.0,0.006,0.001
01/06/2022,05:07:44,0.019,0.0,0.006,0.0
01/06/2022,05:08:44,0.021,0.0,0.006,0.0
01/06/2022,05:09:44,0.022,0.0,0.007,0.001
01/06/2022,05:10:44,0.022,0.0,0.007,0.0
01/06/2022,05:11:52,0.023,0.0,0.007,0.0
01/06/2022,05:13:52,0.025,0.0,0.008,0.001
01/06/2022,05:15:45,0.026,0.0,0.009,0.001
01/06/2022,05:16:44,0.027,0.0,0.01,0.001
01/06/2022,05:17:44,0.028,0.0,0.01,0.0
01/06/2022,05:18:43,0.028,0.0,0.01,0.0
01/06/2022,05:19:44,0.029,0.0,0.011,0.001
01/06/2022,05:20:44,0.029,0.0,0.011,0.0
01/06/2022,05:21:44,0.030,0.0,0.012,0.001
01/06/2022,05:23:09,0.031,0.0,0.013,0.001
01/06/2022,05:24:44,0.033,0.0,0.013,0.0
01/06/2022,05:25:44,0.032,0.0,0.014,0.001
01/06/2022,05:26:44,0.032,0.0,0.015,0.001
01/06/2022,05:27:44,0.034,0.0,0.015,0.0
01/06/2022,05:28:44,0.034,0.0,0.016,0.001
01/06/2022,05:29:44,0.035,0.0,0.016,0.0
01/06/2022,05:30:44,0.035,0.0,0.017,0.001
01/06/2022,05:31:44,0.034,0.0,0.017,0.0
01/06/2022,05:32:52,0.035,0.0,0.018,0.001
01/06/2022,05:33:43,0.035,0.0,0.019,0.001
01/06/2022,05:34:43,0.035,0.0,0.019,0.0
01/06/2022,05:35:44,0.036,0.0,0.02,0.001
01/06/2022,05:36:43,0.038,0.0,0.02,0.0
01/06/2022,05:37:44,0.039,0.0,0.021,0.001
01/06/2022,05:38:44,0.040,0.0,0.022,0.001
01/06/2022,05:39:44,0.041,0.0,0.022,0.0
01/06/2022,05:41:01,0.042,0.0,0.023,0.001
01/06/2022,05:42:45,0.043,0.0,0.024,0.001
01/06/2022,05:43:44,0.043,0.0,0.025,0.001
01/06/2022,05:44:44,0.044,0.0,0.026,0.001
01/06/2022,05:45:44,0.045,0.0,0.027,0.001
01/06/2022,05:46:44,0.048,0.0,0.027,0.0
01/06/2022,05:47:44,0.050,0.0,0.028,0.001
01/06/2022,05:48:44,0.052,0.0,0.029,0.001
01/06/2022,05:49:44,0.054,0.0,0.03,0.001
01/06/2022,05:50:43,0.055,0.0,0.031,0.001
01/06/2022,05:51:44,0.055,0.0,0.032,0.001
01/06/2022,05:52:44,0.057,0.0,0.033,0.001
01/06/2022,05:53:44,0.058,0.0,0.034,0.001
01/06/2022,05:54:44,0.058,0.0,0.035,0.001
01/06/2022,05:55:44,0.057,0.0,0.036,0.001
01/06/2022,05:56:44,0.058,0.0,0.037,0.001
01/06/2022,05:57:44,0.059,0.0,0.038,0.001
01/06/2022,05:58:44,0.060,0.0,0.039,0.001
01/06/2022,05:59:44,0.060,0.0,0.04,0.001
01/06/2022,06:00:44,0.063,0.0,0.041,0.001
01/06/2022,06:01:44,0.063,0.0,0.042,0.001
01/06/2022,06:02:44,0.065,0.0,0.043,0.001
01/06/2022,06:03:44,0.068,0.0,0.044,0.001
01/06/2022,06:04:44,0.072,0.0,0.045,0.001
01/06/2022,06:05:37,0.074,0.0,0.046,0.001
01/06/2022,06:06:45,0.078,0.0,0.047,0.001
01/06/2022,06:07:44,0.081,0.0,0.049,0.002
01/06/2022,06:08:44,0.087,0.0,0.05,0.001
01/06/2022,06:09:43,0.090,0.0,0.052,0.002
01/06/2022,06:10:45,0.093,0.0,0.053,0.001
01/06/2022,06:11:45,0.097,0.0,0.055,0.002
01/06/2022,06:12:44,0.100,0.0,0.056,0.001
01/06/2022,06:13:52,0.104,0.0,0.058,0.002
01/06/2022,06:15:45,0.108,0.0,0.062,0.004
01/06/2022,06:16:44,0.110,0.0,0.063,0.001
01/06/2022,06:17:44,0.113,0.0,0.065,0.002
01/06/2022,06:18:44,0.114,0.0,0.067,0.002
01/06/2022,06:19:44,0.114,0.0,0.069,0.002
01/06/2022,06:20:44,0.116,0.0,0.071,0.002
01/06/2022,06:21:43,0.117,0.0,0.073,0.002
01/06/2022,06:22:45,0.115,0.0,0.075,0.002
01/06/2022,06:23:44,0.115,0.0,0.077,0.002
01/06/2022,06:24:44,0.115,0.0,0.079,0.002
01/06/2022,06:25:44,0.114,0.0,0.081,0.002
01/06/2022,06:26:44,0.113,0.0,0.082,0.001
01/06/2022,06:27:44,0.115,0.0,0.084,0.002
01/06/2022,06:28:44,0.120,0.0,0.086,0.002
01/06/2022,06:29:50,0.126,0.0,0.089,0.003
01/06/2022,06:30:43,0.129,0.0,0.09,0.001
01/06/2022,06:31:44,0.134,0.0,0.093,0.003
01/06/2022,06:32:44,0.136,0.0,0.095,0.002
01/06/2022,06:33:44,0.138,0.0,0.097,0.002
01/06/2022,06:34:44,0.142,0.0,0.1,0.003
01/06/2022,06:35:44,0.146,0.0,0.102,0.002
01/06/2022,06:36:44,0.150,0.0,0.104,0.002
01/06/2022,06:37:52,0.153,0.0,0.107,0.003
01/06/2022,06:38:44,0.157,0.0,0.11,0.003
01/06/2022,06:39:44,0.159,0.0,0.112,0.002
01/06/2022,06:40:44,0.173,0.0,0.115,0.003
01/06/2022,06:41:44,0.159,0.0,0.118,0.003
01/06/2022,06:42:44,0.155,0.0,0.12,0.002
01/06/2022,06:43:44,0.153,0.0,0.123,0.003
01/06/2022,06:44:44,0.149,0.0,0.125,0.002
01/06/2022,06:45:44,0.144,0.0,0.128,0.003
01/06/2022,06:46:44,0.140,0.0,0.13,0.002
01/06/2022,06:47:44,0.140,0.0,0.133,0.003
01/06/2022,06:48:44,0.142,0.0,0.135,0.002
01/06/2022,06:49:44,0.146,0.0,0.137,0.002
01/06/2022,06:50:44,0.155,0.0,0.14,0.003
01/06/2022,06:51:44,0.164,0.0,0.142,0.002
01/06/2022,06:52:44,0.173,0.0,0.145,0.003
01/06/2022,06:53:44,0.181,0.0,0.148,0.003
01/06/2022,06:54:44,0.185,0.0,0.151,0.003
01/06/2022,06:55:44,0.189,0.0,0.154,0.003
01/06/2022,06:56:44,0.190,0.0,0.158,0.004
01/06/2022,06:57:44,0.190,0.0,0.161,0.003
01/06/2022,06:58:44,0.191,0.0,0.164,0.003
01/06/2022,06:59:44,0.193,0.0,0.167,0.003
01/06/2022,07:00:44,0.200,0.0,0.17,0.003
01/06/2022,07:01:44,0.205,0.0,0.174,0.004
01/06/2022,07:02:44,0.209,0.0,0.177,0.003
01/06/2022,07:03:44,0.215,0.0,0.181,0.004
01/06/2022,07:04:44,0.221,1.0,0.184,0.003
01/06/2022,07:05:44,0.227,1.0,0.188,0.004
01/06/2022,07:06:52,0.233,1.0,0.192,0.004
01/06/2022,07:08:45,0.242,1.0,0.2,0.008
01/06/2022,07:09:44,0.249,1.0,0.204,0.004
01/06/2022,07:10:44,0.259,1.0,0.208,0.004
01/06/2022,07:11:44,0.259,1.0,0.212,0.004
01/06/2022,07:12:44,0.278,1.0,0.217,0.005
01/06/2022,07:13:44,0.271,1.0,0.221,0.004
01/06/2022,07:14:44,0.269,1.0,0.226,0.005
01/06/2022,07:15:44,0.275,1.0,0.23,0.004
01/06/2022,07:16:44,0.285,1.0,0.235,0.005
01/06/2022,07:17:45,0.298,1.0,0.24,0.005
01/06/2022,07:18:44,0.311,1.0,0.245,0.005
01/06/2022,07:19:45,0.348,1.0,0.25,0.005
01/06/2022,07:20:44,0.394,1.0,0.257,0.007
01/06/2022,07:21:44,0.403,1.0,0.264,0.007
01/06/2022,07:22:44,0.383,1.0,0.27,0.006
01/06/2022,07:23:44,0.365,1.0,0.276,0.006
01/06/2022,07:24:52,0.338,1.0,0.283,0.007
01/06/2022,07:25:43,0.316,1.0,0.287,0.004
01/06/2022,07:26:44,0.317,1.0,0.293,0.006
01/06/2022,07:27:55,0.347,1.0,0.299,0.006
01/06/2022,07:29:44,0.281,1.0,0.309,0.01
01/06/2022,07:30:53,0.288,1.0,0.314,0.005
01/06/2022,07:32:45,0.268,1.0,0.323,0.009
01/06/2022,07:33:45,0.293,1.0,0.328,0.005
01/06/2022,07:34:31,0.289,1.0,0.331,0.003
01/06/2022,07:35:45,0.250,1.0,0.337,0.006
01/06/2022,07:36:44,0.239,1.0,0.341,0.004
01/06/2022,07:37:44,0.233,1.0,0.345,0.004
01/06/2022,07:38:44,0.232,1.0,0.349,0.004
01/06/2022,07:39:44,0.235,1.0,0.353,0.004
01/06/2022,07:40:44,0.239,1.0,0.357,0.004
01/06/2022,07:41:44,0.248,1.0,0.361,0.004
01/06/2022,07:42:44,0.261,1.0,0.365,0.004
01/06/2022,07:43:44,0.281,1.0,0.369,0.004
01/06/2022,07:44:44,0.304,1.0,0.374,0.005
01/06/2022,07:45:44,0.335,1.0,0.38,0.006
01/06/2022,07:46:44,0.369,1.0,0.385,0.005
01/06/2022,07:47:45,0.405,1.0,0.392,0.007
01/06/2022,07:48:44,0.445,1.0,0.399,0.007
01/06/2022,07:49:44,0.472,1.0,0.406,0.007
01/06/2022,07:50:45,0.495,1.0,0.414,0.008
01/06/2022,07:51:44,0.616,1.0,0.424,0.01
01/06/2022,07:52:44,0.578,1.0,0.434,0.01
01/06/2022,07:53:44,0.527,1.0,0.442,0.008
01/06/2022,07:54:45,0.663,2.0,0.452,0.01
01/06/2022,07:55:44,0.678,2.0,0.463,0.011
01/06/2022,07:56:44,0.699,2.0,0.475,0.012
01/06/2022,07:57:44,0.705,2.0,0.487,0.012
01/06/2022,07:58:44,0.595,1.0,0.497,0.01
01/06/2022,07:59:44,0.626,1.0,0.507,0.01
01/06/2022,08:00:44,0.697,2.0,0.518,0.011
01/06/2022,08:02:09,0.557,1.0,0.532,0.014
01/06/2022,08:03:45,0.597,1.0,0.547,0.015
01/06/2022,08:04:53,0.635,1.0,0.559,0.012
01/06/2022,08:06:45,0.435,1.0,0.574,0.015
01/06/2022,08:07:53,0.398,1.0,0.583,0.009
01/06/2022,08:08:44,0.373,1.0,0.588,0.005
01/06/2022,08:09:44,0.470,1.0,0.595,0.007
01/06/2022,08:10:44,0.370,1.0,0.602,0.007
01/06/2022,08:11:45,0.391,1.0,0.608,0.006
01/06/2022,08:12:44,0.420,1.0,0.615,0.007
01/06/2022,08:13:44,0.454,1.0,0.622,0.007
01/06/2022,08:14:44,0.478,1.0,0.63,0.008
01/06/2022,08:15:45,0.503,1.0,0.638,0.008
01/06/2022,08:16:44,0.680,2.0,0.647,0.009
01/06/2022,08:17:52,0.793,2.0,0.661,0.014
01/06/2022,08:18:44,0.810,2.0,0.673,0.012
01/06/2022,08:19:44,0.697,2.0,0.685,0.012
01/06/2022,08:20:44,0.819,2.0,0.698,0.013
01/06/2022,08:21:44,0.831,2.0,0.712,0.014
01/06/2022,08:22:44,0.853,2.0,0.726,0.014
01/06/2022,08:23:44,0.855,2.0,0.74,0.014
01/06/2022,08:24:44,0.856,2.0,0.754,0.014
01/06/2022,08:25:44,0.871,2.0,0.768,0.014
01/06/2022,08:26:44,0.873,2.0,0.783,0.015
01/06/2022,08:27:53,0.862,2.0,0.799,0.016
01/06/2022,08:28:44,0.697,2.0,0.811,0.012
01/06/2022,08:29:45,0.717,2.0,0.823,0.012
01/06/2022,08:30:44,0.894,2.0,0.837,0.014
01/06/2022,08:31:45,0.921,2.0,0.852,0.015
01/06/2022,08:32:44,0.936,2.0,0.867,0.015
01/06/2022,08:33:45,0.958,2.0,0.883,0.016
01/06/2022,08:34:44,0.979,2.0,0.899,0.016
01/06/2022,08:35:44,0.978,2.0,0.916,0.017
01/06/2022,08:36:44,0.956,2.0,0.931,0.015
01/06/2022,08:37:44,0.725,2.0,0.947,0.016
01/06/2022,08:38:44,0.676,2.0,0.958,0.011
01/06/2022,08:39:44,0.668,2.0,0.969,0.011
01/06/2022,08:40:44,1.017,2.0,0.984,0.015
01/06/2022,08:41:45,1.021,2.0,1.001,0.017
01/06/2022,08:42:44,1.068,2.0,1.018,0.017
01/06/2022,08:43:44,1.039,2.0,1.035,0.017
01/06/2022,08:44:44,1.101,3.0,1.053,0.018
01/06/2022,08:45:45,1.115,3.0,1.072,0.019
01/06/2022,08:46:44,1.112,3.0,1.09,0.018
01/06/2022,08:47:44,0.911,2.0,1.106,0.016
01/06/2022,08:48:44,0.826,2.0,1.119,0.013
01/06/2022,08:49:44,0.663,2.0,1.13,0.011
01/06/2022,08:50:44,0.569,1.0,1.14,0.01
01/06/2022,08:51:44,0.555,1.0,1.149,0.009
01/06/2022,08:52:44,0.547,1.0,1.158,0.009
01/06/2022,08:53:52,0.557,1.0,1.169,0.011
01/06/2022,08:54:44,0.571,1.0,1.177,0.008
01/06/2022,08:55:44,0.584,1.0,1.187,0.01
01/06/2022,08:56:44,0.600,1.0,1.196,0.009
01/06/2022,08:57:44,0.837,2.0,1.208,0.012
01/06/2022,08:58:57,0.649,1.0,1.225,0.017
01/06/2022,09:00:45,0.669,2.0,1.244,0.019
01/06/2022,09:01:44,0.662,2.0,1.255,0.011
01/06/2022,09:02:45,0.640,1.0,1.266,0.011
01/06/2022,09:03:53,0.618,1.0,1.278,0.012
01/06/2022,09:05:45,0.606,1.0,1.297,0.019
01/06/2022,09:06:44,0.602,1.0,1.307,0.01
01/06/2022,09:07:44,0.614,1.0,1.317,0.01
01/06/2022,09:08:44,0.624,1.0,1.328,0.011
01/06/2022,09:09:44,0.625,1.0,1.338,0.01
01/06/2022,09:10:44,0.676,2.0,1.349,0.011
01/06/2022,09:11:44,0.681,2.0,1.36,0.011
01/06/2022,09:12:44,0.714,2.0,1.372,0.012
01/06/2022,09:14:01,0.760,2.0,1.388,0.016
01/06/2022,09:15:45,0.871,2.0,1.411,0.023
01/06/2022,09:16:44,0.883,2.0,1.427,0.016
01/06/2022,09:17:53,1.089,3.0,1.449,0.022
01/06/2022,09:19:45,0.882,2.0,1.48,0.031
01/06/2022,09:20:44,0.875,2.0,1.495,0.015
01/06/2022,09:21:44,0.807,2.0,1.509,0.014
01/06/2022,09:22:44,0.754,2.0,1.522,0.013
01/06/2022,09:23:44,0.734,2.0,1.535,0.013
01/06/2022,09:24:44,0.711,2.0,1.547,0.012
01/06/2022,09:25:44,0.703,2.0,1.558,0.011
01/06/2022,09:26:45,0.695,2.0,1.57,0.012
01/06/2022,09:27:44,0.684,2.0,1.581,0.011
01/06/2022,09:28:45,0.666,2.0,1.593,0.012
01/06/2022,09:29:53,0.668,2.0,1.605,0.012
01/06/2022,09:31:45,0.692,2.0,1.626,0.021
01/06/2022,09:32:44,0.696,2.0,1.638,0.012
01/06/2022,09:33:44,0.697,2.0,1.65,0.012
01/06/2022,09:34:45,0.690,2.0,1.661,0.011
01/06/2022,09:35:44,0.676,2.0,1.673,0.012
01/06/2022,09:36:44,0.654,2.0,1.684,0.011
01/06/2022,09:37:44,0.627,1.0,1.694,0.01
01/06/2022,09:38:44,0.601,1.0,1.705,0.011
01/06/2022,09:39:53,0.556,1.0,1.716,0.011
01/06/2022,09:41:47,0.458,1.0,1.732,0.016
01/06/2022,09:42:44,0.410,1.0,1.739,0.007
01/06/2022,09:43:44,0.376,1.0,1.745,0.006
01/06/2022,09:44:44,0.352,1.0,1.751,0.006
01/06/2022,09:45:44,0.337,1.0,1.757,0.006
01/06/2022,09:46:44,0.330,1.0,1.762,0.005
01/06/2022,09:47:44,0.330,1.0,1.768,0.006
01/06/2022,09:48:44,0.337,1.0,1.774,0.006
01/06/2022,09:49:44,0.348,1.0,1.779,0.005
01/06/2022,09:50:44,0.361,1.0,1.785,0.006
01/06/2022,09:51:45,0.373,1.0,1.791,0.006
01/06/2022,09:52:44,0.378,1.0,1.798,0.007
01/06/2022,09:53:53,0.379,1.0,1.805,0.007
01/06/2022,09:55:45,0.384,1.0,1.817,0.012
01/06/2022,09:56:44,0.390,1.0,1.823,0.006
01/06/2022,09:57:44,0.401,1.0,1.83,0.007
01/06/2022,09:58:44,0.413,1.0,1.836,0.006
01/06/2022,09:59:44,0.423,1.0,1.843,0.007
01/06/2022,10:00:44,0.436,1.0,1.851,0.008
01/06/2022,10:01:45,0.445,1.0,1.858,0.007
01/06/2022,10:02:45,0.453,1.0,1.865,0.007
01/06/2022,10:03:44,0.459,1.0,1.873,0.008
01/06/2022,10:04:45,0.470,1.0,1.881,0.008
01/06/2022,10:05:53,0.486,1.0,1.89,0.009
01/06/2022,10:07:45,0.516,1.0,1.906,0.016
01/06/2022,10:08:45,0.529,1.0,1.914,0.008
01/06/2022,10:09:44,0.546,1.0,1.923,0.009
01/06/2022,10:10:44,0.565,1.0,1.932,0.009
01/06/2022,10:11:45,0.589,1.0,1.942,0.01
01/06/2022,10:12:44,0.616,1.0,1.952,0.01
01/06/2022,10:13:54,0.648,1.0,1.964,0.012
01/06/2022,10:15:46,0.712,2.0,1.985,0.021
01/06/2022,10:16:44,0.753,2.0,1.997,0.012
01/06/2022,10:17:44,0.800,2.0,2.01,0.013
01/06/2022,10:18:44,0.851,2.0,2.024,0.014
01/06/2022,10:19:44,0.900,2.0,2.038,0.014
01/06/2022,10:20:44,0.932,2.0,2.054,0.016
01/06/2022,10:21:44,0.957,2.0,2.07,0.016
01/06/2022,10:22:44,1.092,3.0,2.089,0.019
01/06/2022,10:23:44,0.927,2.0,2.105,0.016
01/06/2022,10:24:44,0.906,2.0,2.12,0.015
01/06/2022,10:25:45,0.866,2.0,2.136,0.016
01/06/2022,10:26:45,0.844,2.0,2.15,0.014
01/06/2022,10:27:44,0.841,2.0,2.164,0.014
01/06/2022,10:28:44,0.836,2.0,2.178,0.014
01/06/2022,10:29:52,0.830,2.0,2.194,0.016
01/06/2022,10:31:45,0.842,2.0,2.22,0.026
01/06/2022,10:32:44,0.861,2.0,2.234,0.014
01/06/2022,10:33:45,0.887,2.0,2.248,0.014
01/06/2022,10:34:44,0.923,2.0,2.263,0.015
01/06/2022,10:35:44,0.969,2.0,2.279,0.016
01/06/2022,10:36:45,1.019,2.0,2.296,0.017
01/06/2022,10:37:44,1.053,2.0,2.313,0.017
01/06/2022,10:38:44,1.075,2.0,2.331,0.018
01/06/2022,10:39:44,1.080,2.0,2.349,0.018
01/06/2022,10:40:45,1.043,2.0,2.367,0.018
01/06/2022,10:41:44,1.006,2.0,2.384,0.017
01/06/2022,10:42:44,0.940,2.0,2.4,0.016